FW3274 Weather Reports


Display with metric or nautical units.
time (UTC)temp
F
wind
direction
speed
MPH
gust
MPH
rain 1hr
in
rain 24hr
in
rain mn
in
humidity
%
barometer
mb
20260903120016 90 97 0.0 2.0 0.00 0.00 0.00 41 1012.4
20260903114514 90 219 0.0 3.0 0.00 0.00 0.00 40 1012.6
20260903113012 91 92 0.0 0.0 0.00 0.00 0.00 41 1012.6
20260903111509 90 68 0.0 4.0 0.00 0.00 0.00 41 1012.9
20260903110012 89 95 0.0 0.0 0.00 0.00 0.00 45 1013.0
20260903104508 89 244 0.0 5.0 0.00 0.00 0.00 42 1013.1
20260903103008 89 178 0.0 3.0 0.00 0.00 0.00 42 1013.2
20260903101505 89 80 0.0 1.0 0.00 0.00 0.00 44 1013.3
20260903100005 89 96 0.0 3.0 0.00 0.00 0.00 41 1013.5
20260903094505 88 181 0.0 1.0 0.00 0.00 0.00 43 1013.9
20260903093001 87 88 0.0 1.0 0.00 0.00 0.00 42 1014.1
20260903091600 86 78 0.0 2.0 0.00 0.00 0.00 43 1014.0
20260903090100 86 73 0.0 1.0 0.00 0.00 0.00 44 1014.0
20260903084557 86 96 0.0 1.0 0.00 0.00 0.00 44 1014.1
20260903083055 85 94 0.0 0.0 0.00 0.00 0.00 45 1014.1
20260903081558 85 74 0.0 0.0 0.00 0.00 0.00 46 1013.9
20260903080050 84 77 0.0 0.0 0.00 0.00 0.00 46 1013.9
20260903074551 84 53 0.0 0.0 0.00 0.00 0.00 46 1014.0
20260903073046 83 76 0.0 0.0 0.00 0.00 0.00 46 1013.8
20260903071544 82 58 0.0 0.0 0.00 0.00 0.00 49 1013.9
20260903070039 80 309 0.0 0.0 0.00 0.00 0.00 55 1013.9
20260903064538 79 314 0.0 0.0 0.00 0.00 0.00 57 1013.8
20260903063102 76 307 0.0 0.0 0.00 0.00 0.00 61 1013.7
20260903061529 76 331 0.0 0.0 0.00 0.00 0.00 63 1013.5
20260903060025 74 28 0.0 0.0 0.00 0.00 0.00 66 1013.3
20260903054525 72 29 0.0 0.0 0.00 0.00 0.00 69 1013.2
20260903053023 70 49 0.0 0.0 0.00 0.00 0.00 72 1013.2
20260903051522 70 82 0.0 0.0 0.00 0.00 0.00 72 1013.1
20260903050021 69 82 0.0 0.0 0.00 0.00 0.00 73 1013.0
20260903044520 68 82 0.0 0.0 0.00 0.00 0.00 74 1013.0
20260903043018 69 82 0.0 0.0 0.00 0.00 0.00 74 1013.0
20260903041521 69 82 0.0 0.0 0.00 0.00 0.00 74 1012.9
20260903040015 69 82 0.0 0.0 0.00 0.00 0.00 74 1012.8
20260903034522 70 82 0.0 0.0 0.00 0.00 0.00 73 1012.8
20260903033008 71 70 0.0 0.0 0.00 0.00 0.00 70 1012.8
20260903031505 73 66 0.0 0.0 0.00 0.00 0.00 65 1012.7
20260903030008 73 329 0.0 0.0 0.00 0.00 0.00 65 1012.6
20260903024505 73 292 0.0 1.0 0.00 0.00 0.00 66 1012.6
20260903023005 73 318 0.0 0.0 0.00 0.00 0.00 66 1012.5
20260903021507 73 319 0.0 0.0 0.00 0.00 0.00 66 1012.5
20260903020003 73 319 0.0 0.0 0.00 0.00 0.00 65 1012.5
20260903014502 73 298 0.0 0.0 0.00 0.00 0.00 65 1012.6
20260903013002 73 311 0.0 0.0 0.00 0.00 0.00 66 1012.5
20260903011501 73 258 0.0 0.0 0.00 0.00 0.00 66 1012.5
20260903010001 73 257 0.0 0.0 0.00 0.00 0.00 67 1012.5
20260903004600 73 163 0.0 0.0 0.00 0.00 0.00 67 1012.5
20260903003059 73 162 0.0 0.0 0.00 0.00 0.00 66 1012.5
20260903001557 73 161 0.0 0.0 0.00 0.00 0.00 67 1012.6
20260903000057 73 159 0.0 0.0 0.00 0.00 0.00 66 1012.6
20260902234555 74 159 0.0 0.0 0.00 0.00 0.00 66 1012.6
20260902233058 74 159 0.0 0.0 0.00 0.00 0.00 66 1012.7
20260902231604 74 159 0.0 0.0 0.00 0.00 0.00 65 1012.8
20260902230051 74 159 0.0 0.0 0.00 0.00 0.00 65 1012.8
20260902224554 74 159 0.0 0.0 0.00 0.00 0.00 66 1012.7
20260902223043 74 159 0.0 0.0 0.00 0.00 0.00 66 1012.7
20260902221546 74 159 0.0 0.0 0.00 0.00 0.00 67 1012.6
20260902220037 74 165 0.0 0.0 0.00 0.00 0.00 67 1012.3
20260902214537 75 165 0.0 0.0 0.00 0.00 0.00 68 1012.1
20260902213036 75 165 0.0 0.0 0.00 0.00 0.00 65 1012.1
20260902211545 75 165 0.0 0.0 0.00 0.00 0.00 65 1012.1
20260902210036 76 165 0.0 0.0 0.00 0.00 0.00 64 1012.2
20260902204535 76 165 0.0 0.0 0.00 0.00 0.00 64 1012.0
20260902203034 76 165 0.0 0.0 0.00 0.00 0.00 63 1011.9
20260902201538 77 165 0.0 0.0 0.00 0.00 0.00 63 1011.9
20260902200036 77 165 0.0 0.0 0.00 0.00 0.00 62 1012.0
20260902194536 78 165 0.0 0.0 0.00 0.00 0.00 60 1011.8
20260902193032 78 165 0.0 0.0 0.00 0.00 0.00 59 1011.6
20260902191536 79 165 0.0 0.0 0.00 0.00 0.00 58 1011.4
20260902190032 80 165 0.0 0.0 0.00 0.00 0.00 56 1011.4
20260902184531 80 165 0.0 0.0 0.00 0.00 0.00 55 1011.2
20260902183032 81 165 0.0 0.0 0.00 0.00 0.00 53 1010.9
20260902181530 82 165 0.0 0.0 0.00 0.00 0.00 50 1010.7
20260902180030 83 165 0.0 0.0 0.00 0.00 0.00 48 1010.7
20260902174530 84 165 0.0 0.0 0.00 0.00 0.00 47 1010.5
20260902173029 84 165 0.0 0.0 0.00 0.00 0.00 47 1010.5
20260902171529 86 165 0.0 0.0 0.00 0.00 0.00 46 1010.5
20260902170028 87 165 0.0 0.0 0.00 0.00 0.00 42 1010.4
20260902164529 88 165 0.0 0.0 0.00 0.00 0.00 41 1010.5
20260902163027 88 165 0.0 0.0 0.00 0.00 0.00 42 1010.4
20260902161532 88 150 0.0 0.0 0.00 0.00 0.00 43 1010.4
20260902160026 89 96 0.0 0.0 0.00 0.00 0.00 39 1010.5
20260902154530 89 71 0.0 1.0 0.00 0.00 0.00 40 1010.5
20260902153025 90 215 0.0 2.0 0.00 0.00 0.00 39 1010.5
20260902151522 89 226 0.0 0.0 0.00 0.00 0.00 40 1010.7
20260902150021 89 238 0.0 2.0 0.00 0.00 0.00 40 1010.9
20260902144530 89 248 0.0 3.0 0.00 0.00 0.00 39 1011.0
20260902143020 90 243 0.0 2.0 0.00 0.00 0.00 39 1011.1
20260902141522 89 200 0.0 2.0 0.00 0.00 0.00 40 1011.3
20260902140018 89 31 0.0 2.0 0.00 0.00 0.00 40 1011.3
20260902134530 89 329 0.0 0.0 0.00 0.00 0.00 42 1011.4
20260902133020 89 327 0.0 3.0 0.00 0.00 0.00 40 1011.5
20260902131514 88 243 0.0 3.0 0.00 0.00 0.00 39 1011.6
20260902130009 88 62 0.0 1.0 0.00 0.00 0.00 42 1011.8
20260902124509 89 76 0.0 1.0 0.00 0.00 0.00 41 1011.9
20260902123008 88 78 0.0 1.0 0.00 0.00 0.00 40 1012.1
20260902121505 87 100 0.0 0.0 0.00 0.00 0.00 43 1012.3